HST (20580 NORAD) Tracking and Keplerian Element Data

This shows tracking and keplerian element data for the satellite.

Feedback or suggestion? Click here.




ElementValue
Catalog20580
NameHST
Epoch Orbit40989
Epoch Day229.24922425
Epoch Year2019
RAAN178.1056
Inclination28.4697
Eccentricity0.0002772
Argument of Perigee52.6629
Mean Anonmoly307.4244
Mean Motion15.09254046
Decay Rate2.2E-06
L11 20580U 90037B 19229.24922425 .00000220 00000-0 23634-5 0 9994
L22 20580 28.4697 178.1056 0002772 52.6629 307.4244 15.09254046409899

Live tracking and technical data element details for HST (NORAD 20580). HST can be tracked NOW for your location showing map with azimuth and elevation plus other details from your city location.

Track the satellite on the map from your city or location and see movement details for azimuth, elevation, latitude, longitude, range, height, and movement on the map or in text.







IsCatalogInMostPopularTable: catalog: 20580, numindb: 211
Update: records affected: 1



GetName: 20580 HST

Hit Count: updated at: Tue, 20 Aug 2019 18:55:13 GMT